Tracking 20083 objects as of 8-Dec-2019
HD Live streaming from Space Station
objects crossing your sky now

PSLV DEB

Track PSLV DEB now!
10-day predictions


NORAD ID: 35345
Int'l Code: 2001-049QD
Perigee: 646.4 km
Apogee: 738.4 km
Inclination: 98.1 °
Period: 98.5 minutes
Semi major axis: 7063 km
RCS: 0.004 m2 (small)
Launch date: October 22, 2001
Source: India (IND)
Launch site: SRIHARIKOTA (SRI)

Note: This is SATELLITE DEBRIS
aabbcc
Your satellite tracking list
Your tracking list is empty




NASA's NSSDC Master Catalog

Two Line Element Set (TLE):
1 35345U 01049QD  19341.17654044 +.00000627 +00000-0 +12965-3 0  9994
2 35345 098.1206 322.9047 0065170 106.8294 254.0069 14.62454610363409
Source of the keplerian elements: AFSPC